WD9EKA Weather Reports


Display with metric or nautical units.
time (UTC)temp
F
wind
direction
speed
MPH
gust
MPH
rain 1hr
in
rain 24hr
in
rain mn
in
humidity
%
barometer
mb
20260831022317 70 179 0.0 0.0 0.00 0.00 0.00 99 1011.7
20260831021757 70 179 0.0 0.0 0.00 0.00 0.00 99 1011.5
20260831021234 70 179 0.0 0.0 0.00 0.00 0.00 99 1011.6
20260831020717 70 179 0.0 0.0 0.00 0.00 0.00 99 1011.6
20260831020157 70 179 0.0 0.0 0.00 0.00 0.00 99 1011.5
20260831015118 70 179 0.0 0.0 0.00 0.00 0.00 99 1011.4
20260831014557 70 179 0.0 0.0 0.00 0.00 0.00 99 1011.6
20260831014034 70 179 0.0 0.0 0.00 0.00 0.00 98 1011.7
20260831013517 70 179 0.0 0.0 0.00 0.00 0.00 98 1011.3
20260831012957 70 179 0.0 0.0 0.00 0.00 0.00 98 1011.5
20260831012434 71 179 0.0 0.0 0.00 0.00 0.00 98 1011.6
20260831011917 71 179 0.0 0.0 0.00 0.00 0.00 97 1011.5
20260831011356 71 179 0.0 0.0 0.00 0.00 0.00 97 1011.4
20260831010834 71 179 0.0 0.0 0.00 0.00 0.00 96 1011.4
20260831010317 72 179 0.0 0.0 0.00 0.00 0.00 96 1011.4
20260831005757 72 179 0.0 0.0 0.00 0.00 0.00 95 1011.3
20260831005234 72 179 0.0 0.0 0.00 0.00 0.00 94 1011.3
20260831004717 72 179 0.0 0.0 0.00 0.00 0.00 93 1011.4
20260831004157 73 179 0.0 0.0 0.00 0.00 0.00 93 1011.3
20260831003634 73 179 0.0 0.0 0.00 0.00 0.00 92 1011.2
20260831003117 74 179 0.0 0.0 0.00 0.00 0.00 91 1011.1
20260831002557 74 179 0.0 0.0 0.00 0.00 0.00 90 1011.0
20260831002034 75 179 0.0 0.0 0.00 0.00 0.00 89 1011.0
20260831001533 75 179 0.0 0.0 0.00 0.00 0.00 88 1011.0
20260831001013 76 179 0.0 0.0 0.00 0.00 0.00 86 1011.1
20260831000454 77 179 0.0 0.0 0.00 0.00 0.00 84 1011.1
20260830235933 78 179 0.0 0.0 0.00 0.00 0.00 83 1011.1
20260830235413 79 179 0.0 0.0 0.00 0.00 0.00 82 1011.1
20260830234853 80 179 0.0 0.0 0.00 0.00 0.00 81 1011.2
20260830234333 80 179 0.0 0.0 0.00 0.00 0.00 80 1011.0
20260830233813 81 179 0.0 0.0 0.00 0.00 0.00 78 1010.8
20260830233253 81 179 0.0 0.0 0.00 0.00 0.00 77 1010.9
20260830232733 82 179 0.0 0.0 0.00 0.00 0.00 76 1010.9
20260830232213 83 180 0.0 0.0 0.00 0.00 0.00 75 1010.9
20260830231653 84 180 0.0 0.0 0.00 0.00 0.00 73 1011.0
20260830231133 85 180 0.0 0.0 0.00 0.00 0.00 74 1010.7
20260830230613 84 180 0.0 0.0 0.00 0.00 0.00 72 1010.8
20260830230053 85 180 0.0 0.0 0.00 0.00 0.00 70 1011.0
20260830225533 86 180 0.0 0.0 0.00 0.00 0.00 68 1011.0
20260830225013 88 180 0.0 0.0 0.00 0.00 0.00 65 1010.9
20260830224453 91 180 0.0 1.0 0.00 0.00 0.00 61 1011.1
20260830223933 91 180 0.0 0.0 0.00 0.00 0.00 51 1010.9
20260830223413 91 180 0.0 1.0 0.00 0.00 0.00 52 1010.9
20260830222853 91 130 1.0 2.0 0.00 0.00 0.00 49 1010.9
20260830222333 91 212 0.0 0.0 0.00 0.00 0.00 51 1011.1
20260830221813 90 154 2.0 2.0 0.00 0.00 0.00 51 1011.0
20260830221253 91 124 0.0 1.0 0.00 0.00 0.00 51 1010.9
20260830220733 91 161 0.0 0.0 0.00 0.00 0.00 54 1010.9
20260830220213 91 161 0.0 0.0 0.00 0.00 0.00 51 1011.2
20260830215653 91 137 1.0 2.0 0.00 0.00 0.00 49 1011.1
20260830215133 90 157 0.0 1.0 0.00 0.00 0.00 49 1011.0
20260830214613 90 157 0.0 1.0 0.00 0.00 0.00 50 1011.1
20260830214053 91 175 0.0 1.0 0.00 0.00 0.00 48 1011.0
20260830213533 90 135 1.0 1.0 0.00 0.00 0.00 48 1011.1
20260830213013 91 154 1.0 2.0 0.00 0.00 0.00 46 1011.3
20260830212453 91 214 0.0 1.0 0.00 0.00 0.00 47 1011.4
20260830211933 91 238 2.0 2.0 0.00 0.00 0.00 46 1011.3
20260830211413 90 177 0.0 0.0 0.00 0.00 0.00 47 1011.4
20260830210853 91 111 2.0 4.0 0.00 0.00 0.00 50 1011.2
20260830210333 91 199 2.0 3.0 0.00 0.00 0.00 46 1011.3
20260830205813 92 195 0.0 1.0 0.00 0.00 0.00 45 1011.4
20260830205253 92 242 2.0 3.0 0.00 0.00 0.00 46 1011.6
20260830204733 92 148 0.0 1.0 0.00 0.00 0.00 51 1011.4
20260830204213 92 251 2.0 2.0 0.00 0.00 0.00 45 1011.7
20260830203653 92 243 2.0 3.0 0.00 0.00 0.00 47 1011.7
20260830203133 92 124 3.0 4.0 0.00 0.00 0.00 43 1011.7
20260830202613 91 114 0.0 1.0 0.00 0.00 0.00 50 1011.7
20260830202053 91 123 2.0 3.0 0.00 0.00 0.00 49 1011.9
20260830201533 91 121 1.0 2.0 0.00 0.00 0.00 45 1011.8
20260830201013 91 256 3.0 4.0 0.00 0.00 0.00 47 1012.0
20260830200453 92 253 3.0 4.0 0.00 0.00 0.00 46 1012.0
20260830195933 91 132 1.0 2.0 0.00 0.00 0.00 50 1012.0
20260830195413 91 250 4.0 5.0 0.00 0.00 0.00 47 1011.8
20260830194853 91 241 2.0 3.0 0.00 0.00 0.00 48 1012.2
20260830194333 91 143 1.0 2.0 0.00 0.00 0.00 49 1011.9
20260830193813 90 237 0.0 1.0 0.00 0.00 0.00 53 1012.3
20260830193253 90 239 2.0 4.0 0.00 0.00 0.00 49 1012.3
20260830192733 90 156 0.0 1.0 0.00 0.00 0.00 49 1012.6
20260830192214 90 177 2.0 4.0 0.00 0.00 0.00 49 1012.5
20260830191653 89 237 1.0 3.0 0.00 0.00 0.00 51 1012.7
20260830191133 90 210 1.0 3.0 0.00 0.00 0.00 47 1012.7
20260830190613 89 176 0.0 1.0 0.00 0.00 0.00 47 1012.6
20260830190053 89 178 2.0 3.0 0.00 0.00 0.00 48 1012.7
20260830185533 90 226 0.0 2.0 0.00 0.00 0.00 49 1012.8
20260830185013 91 213 4.0 5.0 0.00 0.00 0.00 45 1012.9
20260830184453 90 182 3.0 4.0 0.00 0.00 0.00 47 1012.7
20260830183933 90 237 3.0 4.0 0.00 0.00 0.00 45 1013.1
20260830183413 90 251 1.0 1.0 0.00 0.00 0.00 47 1013.1
20260830182834 90 231 2.0 3.0 0.00 0.00 0.00 49 1013.0
20260830182317 90 218 0.0 2.0 0.00 0.00 0.00 50 1013.1
20260830181757 89 221 1.0 2.0 0.00 0.00 0.00 50 1013.0
20260830181234 89 242 2.0 3.0 0.00 0.00 0.00 51 1013.3
20260830180717 89 219 2.0 3.0 0.00 0.00 0.00 48 1013.3
20260830180157 89 256 9.0 11.0 0.00 0.00 0.00 50 1013.4
20260830175634 89 218 0.0 1.0 0.00 0.00 0.00 53 1013.1
20260830175117 89 201 3.0 4.0 0.00 0.00 0.00 54 1013.2
20260830174557 88 201 0.0 2.0 0.00 0.00 0.00 55 1013.2
20260830173517 88 252 2.0 3.0 0.00 0.00 0.00 59 1013.2
20260830172958 88 203 1.0 1.0 0.00 0.00 0.00 63 1013.4
20260830172434 88 120 0.0 1.0 0.00 0.00 0.00 62 1013.2
20260830171917 87 251 0.0 1.0 0.00 0.00 0.00 65 1013.4
20260830171357 87 179 0.0 1.0 0.00 0.00 0.00 64 1013.5
20260830170834 86 248 1.0 2.0 0.00 0.00 0.00 66 1013.8
20260830170317 85 214 0.0 2.0 0.00 0.00 0.00 66 1013.7
20260830165757 85 232 1.0 2.0 0.00 0.00 0.00 67 1013.9
20260830165234 85 226 2.0 4.0 0.00 0.00 0.00 65 1013.9
20260830164717 86 247 1.0 3.0 0.00 0.00 0.00 67 1013.9
20260830164157 85 231 2.0 3.0 0.00 0.00 0.00 65 1014.0
20260830163634 85 213 1.0 2.0 0.00 0.00 0.00 66 1013.8
20260830163118 85 188 1.0 2.0 0.00 0.00 0.00 67 1013.9
20260830162557 84 229 0.0 0.0 0.00 0.00 0.00 69 1014.0
20260830162034 84 142 0.0 0.0 0.00 0.00 0.00 70 1014.1
20260830161517 83 249 2.0 3.0 0.00 0.00 0.00 69 1014.0
20260830160957 83 234 0.0 0.0 0.00 0.00 0.00 70 1014.3
20260830160434 83 245 2.0 3.0 0.00 0.00 0.00 70 1014.4
20260830155917 83 232 2.0 2.0 0.00 0.00 0.00 71 1014.1
20260830155357 83 246 1.0 2.0 0.00 0.00 0.00 71 1014.2
20260830154837 83 199 0.0 1.0 0.00 0.00 0.00 70 1014.0
20260830154317 84 226 2.0 2.0 0.00 0.00 0.00 69 1014.2
20260830153758 84 244 1.0 2.0 0.00 0.00 0.00 68 1014.1
20260830153237 84 243 2.0 3.0 0.00 0.00 0.00 68 1013.9
20260830152718 82 254 1.0 2.0 0.00 0.00 0.00 70 1013.9
20260830152158 82 146 0.0 0.0 0.00 0.00 0.00 72 1013.6
20260830151634 81 222 3.0 5.0 0.00 0.00 0.00 72 1013.5
20260830151117 81 255 0.0 1.0 0.00 0.00 0.00 74 1013.6
20260830150558 81 209 1.0 2.0 0.00 0.00 0.00 73 1013.5
20260830145518 81 289 2.0 3.0 0.00 0.00 0.00 74 1013.0
20260830144958 80 196 2.0 3.0 0.00 0.00 0.00 74 1013.4
20260830144434 80 247 3.0 4.0 0.00 0.00 0.00 75 1013.3
20260830143918 80 217 0.0 1.0 0.00 0.00 0.00 75 1013.3
20260830143358 78 216 0.0 1.0 0.00 0.00 0.00 79 1013.7
20260830142834 77 229 0.0 1.0 0.00 0.00 0.00 79 1013.3
20260830142318 78 218 0.0 1.0 0.00 0.00 0.00 78 1013.3
20260830141758 78 201 1.0 1.0 0.00 0.00 0.00 81 1013.3
20260830141234 77 210 0.0 1.0 0.00 0.00 0.00 83 1013.3
20260830140718 75 211 0.0 0.0 0.00 0.00 0.00 85 1013.4
20260830140158 74 211 2.0 3.0 0.00 0.00 0.00 86 1013.3
20260830135118 71 203 1.0 2.0 0.00 0.00 0.00 95 1013.4
20260830134034 70 155 0.0 1.0 0.00 0.00 0.00 99 1013.6
20260830133518 70 113 0.0 0.0 0.00 0.00 0.00 99 1013.3
20260830132958 70 123 0.0 0.0 0.00 0.00 0.00 99 1013.8
20260830132434 69 122 0.0 0.0 0.00 0.00 0.00 99 1013.6
20260830131834 68 123 0.0 0.0 0.00 0.00 0.00 99 1013.5
20260830131234 68 123 0.0 0.0 0.00 0.00 0.00 99 1013.6
20260830130634 66 123 0.0 0.0 0.00 0.00 0.00 99 1013.5
20260830130034 66 123 0.0 0.0 0.00 0.00 0.00 99 1013.6
20260830125434 66 123 0.0 0.0 0.00 0.00 0.00 99 1013.5
20260830124834 66 123 0.0 0.0 0.00 0.00 0.00 99 1013.5
20260830124234 65 123 0.0 0.0 0.00 0.00 0.00 99 1013.6
20260830123634 65 123 0.0 0.0 0.00 0.00 0.00 99 1013.5
20260830123034 65 123 0.0 0.0 0.00 0.00 0.00 99 1013.5
20260830122434 64 123 0.0 0.0 0.00 0.00 0.00 99 1013.3
20260830121834 63 123 0.0 0.0 0.00 0.00 0.00 99 1013.4
20260830121234 62 123 0.0 0.0 0.00 0.00 0.00 99 1013.0
20260830120634 62 123 0.0 0.0 0.00 0.00 0.00 99 1013.0
20260830120034 62 123 0.0 0.0 0.00 0.00 0.00 99 1013.0
20260830115434 62 123 0.0 0.0 0.00 0.00 0.00 99 1013.0
20260830114834 61 123 0.0 0.0 0.00 0.00 0.00 99 1012.7
20260830114234 61 123 0.0 0.0 0.00 0.00 0.00 99 1012.9
20260830113634 61 123 0.0 0.0 0.00 0.00 0.00 99 1012.8
20260830113034 61 123 0.0 0.0 0.00 0.00 0.00 99 1012.9
20260830112434 61 123 0.0 0.0 0.00 0.00 0.00 99 1012.9
20260830111833 61 123 0.0 0.0 0.00 0.00 0.00 99 1012.7
20260830111234 61 123 0.0 0.0 0.00 0.00 0.00 99 1012.7
20260830110634 62 123 0.0 0.0 0.00 0.00 0.00 99 1012.4
20260830110034 61 123 0.0 0.0 0.00 0.00 0.00 99 1012.3
20260830104834 61 123 0.0 0.0 0.00 0.00 0.00 99 1012.5
20260830104234 61 123 0.0 0.0 0.00 0.00 0.00 99 1012.6
20260830103726 61 123 0.0 0.0 0.00 0.00 0.00 99 1012.5
20260830103206 61 123 0.0 0.0 0.00 0.00 0.00 99 1012.8
20260830102646 62 123 0.0 0.0 0.00 0.00 0.00 99 1012.6
20260830102126 62 123 0.0 0.0 0.00 0.00 0.00 99 1012.5
20260830101606 63 123 0.0 0.0 0.00 0.00 0.00 99 1012.5
20260830101046 63 123 0.0 0.0 0.00 0.00 0.00 99 1012.5
20260830100526 64 123 0.0 0.0 0.00 0.00 0.00 99 1012.6
20260830100007 63 116 0.0 0.0 0.00 0.00 0.00 99 1012.5
20260830095446 63 116 0.0 0.0 0.00 0.00 0.00 99 1012.3
20260830094926 63 116 0.0 0.0 0.00 0.00 0.00 99 1012.4
20260830094407 63 116 0.0 0.0 0.00 0.00 0.00 99 1012.5
20260830093846 63 116 0.0 0.0 0.00 0.00 0.00 99 1012.5
20260830093326 62 116 0.0 0.0 0.00 0.00 0.00 99 1012.5
20260830092807 61 116 0.0 0.0 0.00 0.00 0.00 99 1012.6
20260830091726 62 116 0.0 0.0 0.00 0.00 0.00 99 1012.7
20260830091206 62 116 0.0 0.0 0.00 0.00 0.00 99 1012.8
20260830090126 61 116 0.0 0.0 0.00 0.00 0.00 99 1012.8
20260830085606 61 116 0.0 0.0 0.00 0.00 0.00 99 1012.7
20260830084526 61 116 0.0 0.0 0.00 0.00 0.00 99 1012.7
20260830084007 62 116 0.0 0.0 0.00 0.00 0.00 99 1013.0
20260830083446 62 116 0.0 0.0 0.00 0.00 0.00 99 1013.0
20260830082926 62 116 0.0 0.0 0.00 0.00 0.00 99 1012.9
20260830082407 61 116 0.0 0.0 0.00 0.00 0.00 99 1013.0
20260830081846 62 116 0.0 0.0 0.00 0.00 0.00 99 1012.9
20260830081326 62 116 0.0 0.0 0.00 0.00 0.00 99 1012.9
20260830080750 62 116 0.0 0.0 0.00 0.00 0.00 99 1012.9
20260830080230 62 116 0.0 0.0 0.00 0.00 0.00 99 1013.1
20260830075151 62 116 0.0 0.0 0.00 0.00 0.00 99 1013.2
20260830074110 62 116 0.0 0.0 0.00 0.00 0.00 99 1013.4
20260830073550 62 116 0.0 0.0 0.00 0.00 0.00 99 1013.1
20260830073030 63 116 0.0 0.0 0.00 0.00 0.00 99 1013.2
20260830072510 63 116 0.0 0.0 0.00 0.00 0.00 99 1013.4
20260830071950 63 116 0.0 0.0 0.00 0.00 0.00 99 1013.3
20260830071430 63 116 0.0 0.0 0.00 0.00 0.00 99 1013.3
20260830070910 62 116 0.0 0.0 0.00 0.00 0.00 99 1013.3
20260830070350 62 116 0.0 0.0 0.00 0.00 0.00 99 1013.2
20260830065830 62 116 0.0 0.0 0.00 0.00 0.00 99 1013.5
20260830065310 62 116 0.0 0.0 0.00 0.00 0.00 99 1013.2
20260830064750 63 116 0.0 0.0 0.00 0.00 0.00 99 1013.4
20260830064234 62 116 0.0 0.0 0.00 0.00 0.00 99 1013.3
20260830063726 62 116 0.0 0.0 0.00 0.00 0.00 99 1013.5
20260830063207 62 116 0.0 0.0 0.00 0.00 0.00 99 1013.3
20260830062646 62 116 0.0 0.0 0.00 0.00 0.00 99 1013.5
20260830061607 62 116 0.0 0.0 0.00 0.00 0.00 99 1013.5
20260830061046 62 116 0.0 0.0 0.00 0.00 0.00 99 1013.3
20260830060533 62 116 0.0 0.0 0.00 0.00 0.00 99 1013.5
20260830055933 62 116 0.0 0.0 0.00 0.00 0.00 99 1013.5
20260830055333 62 116 0.0 0.0 0.00 0.00 0.00 99 1013.3
20260830054733 62 116 0.0 0.0 0.00 0.00 0.00 99 1013.5
20260830054133 62 116 0.0 0.0 0.00 0.00 0.00 99 1013.4
20260830053533 62 116 0.0 0.0 0.00 0.00 0.00 99 1013.4
20260830052933 63 116 0.0 0.0 0.00 0.00 0.00 99 1013.5
20260830051733 63 116 0.0 0.0 0.00 0.00 0.00 99 1013.8
20260830051133 63 116 0.0 0.0 0.00 0.00 0.00 99 1013.8
20260830050533 63 116 0.0 0.0 0.00 0.00 0.00 99 1013.5
20260830045933 63 116 0.0 0.0 0.00 0.00 0.00 99 1013.8
20260830045333 63 116 0.0 0.0 0.00 0.00 0.00 99 1013.4
20260830044733 63 116 0.0 0.0 0.00 0.00 0.00 99 1013.4
20260830043533 63 116 0.0 0.0 0.00 0.00 0.00 99 1013.7
20260830043016 62 116 0.0 0.0 0.00 0.00 0.00 99 1013.4
20260830042455 62 116 0.0 0.0 0.00 0.00 0.00 99 1013.4
20260830041933 63 116 0.0 0.0 0.00 0.00 0.00 99 1013.4
20260830040855 63 116 0.0 0.0 0.00 0.00 0.00 99 1013.2
20260830040333 63 116 0.0 0.0 0.00 0.00 0.00 99 1013.4
20260830035814 63 116 0.0 0.0 0.00 0.00 0.00 99 1013.2
20260830035255 63 116 0.0 0.0 0.00 0.00 0.00 99 1013.3
20260830034733 63 116 0.0 0.0 0.00 0.00 0.00 99 1013.5
20260830034215 63 116 0.0 0.0 0.00 0.00 0.00 99 1013.4
20260830033655 63 116 0.0 0.0 0.00 0.00 0.00 99 1013.5
20260830033133 63 116 0.0 0.0 0.00 0.00 0.00 99 1013.3
20260830032615 64 116 0.0 0.0 0.00 0.00 0.00 99 1013.5
20260830032055 63 116 0.0 0.0 0.00 0.00 0.00 99 1013.2
20260830031015 63 116 0.0 0.0 0.00 0.00 0.00 99 1013.4
20260830030455 63 116 0.0 0.0 0.00 0.00 0.00 99 1013.3
20260830025933 63 116 0.0 0.0 0.00 0.00 0.00 99 1013.2
20260830025415 64 116 0.0 0.0 0.00 0.00 0.00 99 1013.2
20260830024855 64 116 0.0 0.0 0.00 0.00 0.00 99 1013.3
20260830023815 64 116 0.0 0.0 0.00 0.00 0.00 99 1013.1
20260830023255 64 116 0.0 0.0 0.00 0.00 0.00 99 1013.0
20260830022733 64 116 0.0 0.0 0.00 0.00 0.00 99 1013.3